Location: Newark
(36.9436°N, 82.1522°W)
Time: 03:36:24
(UTC+00:00)

N. Korean satellite - Visible Passes

Search period start: 21 November 2019 00:00
Search period end: 01 December 2019 00:00
Orbit: 456 x 506 km, 97.2° (Epoch: 20 November)

Date Brightness Start Highest point End Pass type
(mag) Time Alt. Az. Time Alt. Az. Time Alt. Az.
21 Nov 6.7 11:37:21 10° N 11:40:56 51° WNW 11:44:28 10° SSW visible
21 Nov 10.2 23:46:00 10° WSW 23:47:14 11° W 23:48:30 10° WNW visible
22 Nov 7.0 11:11:56 10° NNE 11:15:35 68° E 11:19:10 10° S visible
22 Nov 9.3 23:18:41 10° SSW 23:21:41 24° W 23:24:43 10° NW visible
23 Nov 8.8 10:46:54 10° NE 10:50:08 29° E 10:53:19 10° SSE visible
23 Nov 7.6 22:52:38 10° S 22:56:12 53° W 22:59:51 10° NNW visible
24 Nov 10.0 10:22:38 10° ENE 10:24:35 14° E 10:26:32 10° SE visible
25 Nov 6.5 11:29:06 10° N 11:32:45 67° WNW 11:36:18 10° SSW visible
25 Nov 10.0 23:36:51 10° SW 23:38:57 15° W 23:41:05 10° WNW visible
26 Nov 7.5 11:03:47 10° NNE 11:07:21 51° E 11:10:50 10° S visible
26 Nov 8.8 23:10:09 10° SSW 23:13:25 30° W 23:16:44 10° NNW visible
27 Nov 9.2 10:38:56 10° NE 10:41:51 23° E 10:44:44 10° SSE visible
27 Nov 7.0 22:44:18 10° S 22:47:58 70° W 22:51:41 10° NNW visible
28 Nov 10.2 10:15:23 10° ENE 10:16:16 11° E 10:17:08 10° ESE visible
28 Nov 7.1 11:46:27 10° N 11:49:49 37° WNW 11:53:08 10° SW visible
29 Nov 6.5 11:20:51 10° N 11:24:29 88° WNW 11:28:02 10° SSW visible
29 Nov 9.7 23:28:00 10° SW 23:30:38 19° W 23:33:18 10° NW visible
30 Nov 8.1 10:55:39 10° NNE 10:59:03 38° E 11:02:23 10° SSE visible
30 Nov 8.3 23:01:39 10° SSW 23:05:07 39° W 23:08:38 10° NNW visible
